| time (UTC) | temp F | wind direction | speed MPH | gust MPH | rain 1hr in | rain 24hr in | rain mn in | humidity % | barometer mb |
| 20260904222446 | 57 | 108 | 1.0 | 1.0 | 0.00 | 0.15 | 0.00 | 84 | 1015.9 |
| 20260904221946 | 57 | 73 | 1.0 | 1.0 | 0.00 | 0.15 | 0.00 | 84 | 1015.9 |
| 20260904221446 | 57 | 112 | 0.0 | 1.0 | 0.00 | 0.15 | 0.00 | 83 | 1015.9 |
| 20260904220946 | 57 | 155 | 0.0 | 2.0 | 0.00 | 0.15 | 0.00 | 83 | 1015.9 |
| 20260904220450 | 57 | 78 | 0.0 | 1.0 | 0.00 | 0.15 | 0.00 | 83 | 1015.9 |
| 20260904215946 | 58 | 83 | 1.0 | 1.0 | 0.00 | 0.15 | 0.00 | 82 | 1015.9 |
| 20260904215446 | 58 | 94 | 1.0 | 1.0 | 0.00 | 0.15 | 0.00 | 82 | 1015.9 |
| 20260904214946 | 58 | 108 | 0.0 | 1.0 | 0.00 | 0.15 | 0.00 | 82 | 1015.9 |
| 20260904214446 | 58 | 21 | 0.0 | 1.0 | 0.00 | 0.15 | 0.00 | 82 | 1015.9 |
| 20260904213945 | 58 | 15 | 1.0 | 2.0 | 0.00 | 0.15 | 0.00 | 81 | 1015.9 |
| 20260904213446 | 58 | 84 | 0.0 | 3.0 | 0.00 | 0.15 | 0.00 | 81 | 1015.9 |
| 20260904212946 | 58 | 67 | 0.0 | 1.0 | 0.00 | 0.15 | 0.00 | 81 | 1015.9 |
| 20260904212446 | 58 | 78 | 1.0 | 1.0 | 0.00 | 0.15 | 0.00 | 81 | 1015.6 |
| 20260904211946 | 58 | 39 | 0.0 | 2.0 | 0.00 | 0.15 | 0.00 | 81 | 1015.9 |
| 20260904211445 | 59 | 74 | 0.0 | 1.0 | 0.00 | 0.15 | 0.00 | 81 | 1015.6 |
| 20260904210948 | 59 | 129 | 0.0 | 3.0 | 0.00 | 0.15 | 0.00 | 81 | 1015.6 |
| 20260904210446 | 59 | 113 | 1.0 | 2.0 | 0.00 | 0.15 | 0.00 | 81 | 1015.6 |
| 20260904205947 | 59 | 120 | 2.0 | 3.0 | 0.00 | 0.15 | 0.00 | 81 | 1015.6 |
| 20260904205446 | 59 | 63 | 1.0 | 2.0 | 0.00 | 0.15 | 0.00 | 80 | 1015.6 |
| 20260904204947 | 59 | 122 | 1.0 | 2.0 | 0.00 | 0.15 | 0.00 | 80 | 1015.6 |
| 20260904204446 | 59 | 6 | 0.0 | 2.0 | 0.00 | 0.15 | 0.00 | 80 | 1015.6 |
| 20260904203948 | 59 | 51 | 1.0 | 2.0 | 0.00 | 0.15 | 0.00 | 79 | 1015.2 |
| 20260904203446 | 59 | 8 | 0.0 | 2.0 | 0.00 | 0.15 | 0.00 | 79 | 1015.2 |
| 20260904202946 | 59 | 11 | 1.0 | 3.0 | 0.00 | 0.15 | 0.00 | 79 | 1015.2 |
| 20260904202446 | 59 | 82 | 1.0 | 2.0 | 0.00 | 0.15 | 0.00 | 79 | 1015.2 |
| 20260904201947 | 60 | 25 | 1.0 | 3.0 | 0.00 | 0.15 | 0.00 | 78 | 1015.6 |
| 20260904201446 | 60 | 150 | 0.0 | 5.0 | 0.00 | 0.15 | 0.00 | 78 | 1015.2 |
| 20260904200946 | 60 | 340 | 2.0 | 5.0 | 0.00 | 0.15 | 0.00 | 77 | 1015.2 |
| 20260904200447 | 60 | 54 | 1.0 | 2.0 | 0.00 | 0.15 | 0.00 | 77 | 1014.9 |
| 20260904195945 | 60 | 9 | 2.0 | 5.0 | 0.00 | 0.15 | 0.00 | 77 | 1015.2 |
| 20260904195446 | 60 | 44 | 1.0 | 6.0 | 0.00 | 0.15 | 0.00 | 77 | 1015.2 |
| 20260904194947 | 60 | 78 | 1.0 | 5.0 | 0.00 | 0.15 | 0.00 | 76 | 1015.2 |
| 20260904194446 | 60 | 113 | 1.0 | 5.0 | 0.00 | 0.15 | 0.00 | 76 | 1015.2 |
| 20260904193946 | 60 | 347 | 2.0 | 3.0 | 0.00 | 0.15 | 0.00 | 76 | 1014.9 |
| 20260904193447 | 61 | 345 | 0.0 | 3.0 | 0.00 | 0.15 | 0.00 | 76 | 1015.2 |
| 20260904192946 | 61 | 59 | 1.0 | 3.0 | 0.00 | 0.15 | 0.00 | 75 | 1014.9 |
| 20260904192446 | 61 | 6 | 1.0 | 3.0 | 0.00 | 0.15 | 0.00 | 75 | 1015.2 |
| 20260904191946 | 61 | 15 | 1.0 | 2.0 | 0.00 | 0.15 | 0.00 | 75 | 1014.9 |
| 20260904191446 | 61 | 339 | 1.0 | 2.0 | 0.00 | 0.15 | 0.00 | 75 | 1014.9 |
| 20260904190946 | 61 | 305 | 2.0 | 6.0 | 0.00 | 0.15 | 0.00 | 74 | 1014.9 |
| 20260904190445 | 62 | 314 | 1.0 | 2.0 | 0.00 | 0.15 | 0.00 | 74 | 1014.6 |
| 20260904185946 | 62 | 283 | 2.0 | 3.0 | 0.00 | 0.15 | 0.00 | 74 | 1014.6 |
| 20260904185446 | 62 | 79 | 2.0 | 5.0 | 0.00 | 0.15 | 0.00 | 74 | 1014.6 |
| 20260904184946 | 62 | 9 | 2.0 | 2.0 | 0.00 | 0.15 | 0.00 | 73 | 1014.6 |
| 20260904184446 | 62 | 336 | 2.0 | 5.0 | 0.00 | 0.15 | 0.00 | 72 | 1014.6 |
| 20260904183952 | 62 | 7 | 1.0 | 5.0 | 0.00 | 0.15 | 0.00 | 72 | 1014.6 |
| 20260904183446 | 62 | 53 | 2.0 | 5.0 | 0.00 | 0.15 | 0.00 | 72 | 1014.6 |
| 20260904182946 | 62 | 354 | 3.0 | 6.0 | 0.00 | 0.15 | 0.00 | 71 | 1014.6 |
| 20260904182446 | 63 | 28 | 2.0 | 10.0 | 0.00 | 0.15 | 0.00 | 71 | 1014.6 |
| 20260904181946 | 63 | 292 | 2.0 | 7.0 | 0.00 | 0.15 | 0.00 | 70 | 1014.6 |
| 20260904181446 | 63 | 112 | 2.0 | 6.0 | 0.00 | 0.15 | 0.00 | 70 | 1014.2 |
| 20260904180946 | 64 | 328 | 3.0 | 7.0 | 0.00 | 0.15 | 0.00 | 69 | 1014.6 |
| 20260904180446 | 64 | 279 | 2.0 | 9.0 | 0.00 | 0.15 | 0.00 | 69 | 1014.2 |
| 20260904175946 | 64 | 336 | 2.0 | 6.0 | 0.00 | 0.15 | 0.00 | 68 | 1014.2 |
| 20260904175445 | 64 | 77 | 4.0 | 9.0 | 0.00 | 0.15 | 0.00 | 68 | 1014.2 |
| 20260904174946 | 63 | 35 | 3.0 | 7.0 | 0.00 | 0.15 | 0.00 | 69 | 1014.2 |
| 20260904174446 | 63 | 353 | 2.0 | 6.0 | 0.00 | 0.15 | 0.00 | 69 | 1014.2 |
| 20260904173946 | 63 | 293 | 2.0 | 5.0 | 0.00 | 0.15 | 0.00 | 68 | 1014.2 |
| 20260904173450 | 63 | 343 | 3.0 | 5.0 | 0.00 | 0.15 | 0.00 | 68 | 1014.2 |
| 20260904172946 | 63 | 320 | 3.0 | 8.0 | 0.00 | 0.15 | 0.00 | 68 | 1014.2 |
| 20260904172446 | 63 | 234 | 1.0 | 6.0 | 0.00 | 0.15 | 0.00 | 68 | 1013.9 |
| 20260904171946 | 63 | 314 | 4.0 | 7.0 | 0.00 | 0.15 | 0.00 | 68 | 1014.2 |
| 20260904171449 | 63 | 355 | 1.0 | 6.0 | 0.00 | 0.15 | 0.00 | 67 | 1013.9 |
| 20260904170947 | 64 | 288 | 3.0 | 5.0 | 0.00 | 0.15 | 0.00 | 67 | 1014.2 |
| 20260904170446 | 64 | 324 | 3.0 | 5.0 | 0.00 | 0.15 | 0.00 | 67 | 1014.2 |
| 20260904165946 | 64 | 25 | 1.0 | 5.0 | 0.00 | 0.15 | 0.00 | 67 | 1013.9 |
| 20260904165447 | 64 | 309 | 3.0 | 7.0 | 0.00 | 0.15 | 0.00 | 66 | 1013.9 |
| 20260904164946 | 64 | 313 | 1.0 | 5.0 | 0.00 | 0.15 | 0.00 | 67 | 1014.2 |
| 20260904164447 | 64 | 314 | 1.0 | 5.0 | 0.00 | 0.15 | 0.00 | 67 | 1013.9 |
| 20260904163947 | 64 | 351 | 2.0 | 3.0 | 0.00 | 0.15 | 0.00 | 67 | 1013.5 |
| 20260904163446 | 64 | 304 | 5.0 | 7.0 | 0.00 | 0.15 | 0.00 | 67 | 1013.9 |
| 20260904162946 | 64 | 331 | 2.0 | 7.0 | 0.00 | 0.15 | 0.00 | 68 | 1013.9 |
| 20260904162446 | 64 | 0 | 2.0 | 10.0 | 0.00 | 0.15 | 0.00 | 68 | 1013.5 |
| 20260904161947 | 64 | 211 | 3.0 | 9.0 | 0.00 | 0.15 | 0.00 | 68 | 1013.5 |
| 20260904161446 | 64 | 283 | 4.0 | 9.0 | 0.00 | 0.15 | 0.00 | 68 | 1013.5 |
| 20260904160948 | 64 | 312 | 3.0 | 8.0 | 0.00 | 0.15 | 0.00 | 68 | 1013.5 |
| 20260904160446 | 64 | 277 | 4.0 | 9.0 | 0.00 | 0.15 | 0.00 | 69 | 1013.5 |
| 20260904155947 | 64 | 341 | 3.0 | 7.0 | 0.00 | 0.15 | 0.00 | 68 | 1013.9 |
| 20260904155446 | 64 | 266 | 6.0 | 9.0 | 0.00 | 0.15 | 0.00 | 68 | 1013.9 |
| 20260904154946 | 64 | 302 | 3.0 | 11.0 | 0.00 | 0.15 | 0.00 | 68 | 1013.5 |
| 20260904154448 | 65 | 322 | 3.0 | 7.0 | 0.00 | 0.15 | 0.00 | 69 | 1013.5 |
| 20260904153952 | 65 | 358 | 3.0 | 6.0 | 0.00 | 0.15 | 0.00 | 69 | 1013.5 |
| 20260904153446 | 65 | 51 | 4.0 | 13.0 | 0.00 | 0.15 | 0.00 | 67 | 1013.5 |
| 20260904152946 | 65 | 259 | 3.0 | 6.0 | 0.00 | 0.15 | 0.00 | 66 | 1013.5 |
| 20260904152448 | 65 | 6 | 6.0 | 14.0 | 0.00 | 0.15 | 0.00 | 66 | 1013.5 |
| 20260904151946 | 65 | 313 | 6.0 | 7.0 | 0.00 | 0.15 | 0.00 | 67 | 1013.5 |
| 20260904151447 | 65 | 263 | 5.0 | 11.0 | 0.00 | 0.15 | 0.00 | 67 | 1013.5 |
| 20260904150946 | 65 | 225 | 5.0 | 10.0 | 0.00 | 0.15 | 0.00 | 66 | 1013.5 |
| 20260904150448 | 65 | 34 | 6.0 | 8.0 | 0.00 | 0.15 | 0.00 | 65 | 1013.5 |
| 20260904145946 | 65 | 15 | 3.0 | 8.0 | 0.00 | 0.15 | 0.00 | 65 | 1013.5 |
| 20260904145447 | 65 | 308 | 1.0 | 7.0 | 0.00 | 0.15 | 0.00 | 67 | 1013.2 |
| 20260904144946 | 65 | 31 | 2.0 | 6.0 | 0.00 | 0.15 | 0.00 | 65 | 1013.2 |
| 20260904144447 | 66 | 13 | 6.0 | 10.0 | 0.00 | 0.15 | 0.00 | 65 | 1013.2 |
| 20260904143947 | 65 | 18 | 5.0 | 9.0 | 0.00 | 0.15 | 0.00 | 64 | 1012.9 |
| 20260904143446 | 65 | 358 | 5.0 | 8.0 | 0.00 | 0.15 | 0.00 | 63 | 1012.9 |
| 20260904142952 | 66 | 352 | 7.0 | 10.0 | 0.00 | 0.15 | 0.00 | 63 | 1012.9 |
| 20260904142452 | 66 | 17 | 3.0 | 9.0 | 0.00 | 0.15 | 0.00 | 64 | 1013.2 |
| 20260904141946 | 66 | 329 | 4.0 | 9.0 | 0.00 | 0.15 | 0.00 | 63 | 1013.2 |
| 20260904141446 | 66 | 292 | 4.0 | 8.0 | 0.00 | 0.15 | 0.00 | 64 | 1012.9 |
| 20260904140946 | 66 | 342 | 4.0 | 7.0 | 0.00 | 0.15 | 0.00 | 63 | 1013.2 |
| 20260904140446 | 66 | 328 | 2.0 | 7.0 | 0.00 | 0.15 | 0.00 | 65 | 1012.9 |
| 20260904135948 | 65 | 25 | 4.0 | 9.0 | 0.00 | 0.15 | 0.00 | 66 | 1012.9 |
| 20260904135447 | 65 | 293 | 5.0 | 9.0 | 0.00 | 0.15 | 0.00 | 67 | 1012.9 |
| 20260904134949 | 65 | 263 | 5.0 | 8.0 | 0.00 | 0.15 | 0.00 | 68 | 1012.9 |
| 20260904134446 | 66 | 12 | 6.0 | 9.0 | 0.00 | 0.15 | 0.00 | 67 | 1012.5 |
| 20260904133947 | 66 | 280 | 4.0 | 11.0 | 0.00 | 0.15 | 0.00 | 67 | 1012.5 |
| 20260904133446 | 66 | 357 | 3.0 | 13.0 | 0.00 | 0.15 | 0.00 | 67 | 1012.9 |
| 20260904132946 | 65 | 17 | 3.0 | 5.0 | 0.00 | 0.15 | 0.00 | 70 | 1012.5 |
| 20260904132446 | 65 | 44 | 3.0 | 7.0 | 0.00 | 0.15 | 0.00 | 70 | 1012.9 |
| 20260904131946 | 65 | 341 | 7.0 | 16.0 | 0.00 | 0.15 | 0.00 | 68 | 1012.5 |
| 20260904131446 | 65 | 293 | 5.0 | 8.0 | 0.00 | 0.15 | 0.00 | 68 | 1012.5 |
| 20260904130946 | 65 | 318 | 4.0 | 8.0 | 0.00 | 0.15 | 0.00 | 68 | 1012.5 |
| 20260904130447 | 65 | 287 | 5.0 | 7.0 | 0.00 | 0.15 | 0.00 | 68 | 1012.5 |
| 20260904125949 | 65 | 325 | 4.0 | 8.0 | 0.00 | 0.15 | 0.00 | 68 | 1012.2 |
| 20260904125446 | 65 | 268 | 4.0 | 10.0 | 0.00 | 0.15 | 0.00 | 66 | 1012.2 |
| 20260904124946 | 65 | 328 | 4.0 | 11.0 | 0.00 | 0.15 | 0.00 | 66 | 1012.2 |
| 20260904124446 | 65 | 335 | 1.0 | 9.0 | 0.00 | 0.15 | 0.00 | 66 | 1012.5 |
| 20260904123946 | 65 | 333 | 4.0 | 7.0 | 0.00 | 0.15 | 0.00 | 66 | 1012.2 |
| 20260904123446 | 65 | 275 | 5.0 | 8.0 | 0.00 | 0.15 | 0.00 | 67 | 1012.2 |
| 20260904122946 | 65 | 343 | 2.0 | 5.0 | 0.00 | 0.15 | 0.00 | 69 | 1012.2 |
| 20260904122446 | 65 | 293 | 4.0 | 10.0 | 0.00 | 0.15 | 0.00 | 69 | 1012.2 |
| 20260904121946 | 65 | 274 | 5.0 | 11.0 | 0.00 | 0.15 | 0.00 | 67 | 1012.2 |
| 20260904121446 | 65 | 292 | 3.0 | 7.0 | 0.00 | 0.15 | 0.00 | 66 | 1011.9 |
| 20260904120947 | 66 | 333 | 3.0 | 7.0 | 0.00 | 0.15 | 0.00 | 67 | 1011.9 |
| 20260904120446 | 66 | 52 | 2.0 | 8.0 | 0.00 | 0.15 | 0.00 | 67 | 1011.9 |
| 20260904115946 | 65 | 310 | 4.0 | 8.0 | 0.00 | 0.15 | 0.00 | 67 | 1011.9 |
| 20260904115446 | 65 | 6 | 3.0 | 6.0 | 0.00 | 0.15 | 0.00 | 69 | 1011.9 |
| 20260904114947 | 65 | 298 | 2.0 | 6.0 | 0.00 | 0.15 | 0.00 | 69 | 1011.9 |
| 20260904114447 | 65 | 301 | 2.0 | 9.0 | 0.00 | 0.15 | 0.00 | 69 | 1011.9 |
| 20260904113945 | 65 | 331 | 3.0 | 10.0 | 0.00 | 0.15 | 0.00 | 69 | 1011.9 |
| 20260904113446 | 65 | 294 | 5.0 | 8.0 | 0.00 | 0.15 | 0.00 | 74 | 1011.5 |
| 20260904112946 | 65 | 234 | 6.0 | 8.0 | 0.00 | 0.15 | 0.00 | 74 | 1011.9 |
| 20260904112446 | 65 | 215 | 4.0 | 9.0 | 0.00 | 0.15 | 0.00 | 74 | 1011.2 |
| 20260904111947 | 65 | 332 | 3.0 | 10.0 | 0.00 | 0.15 | 0.00 | 74 | 1011.9 |
| 20260904111446 | 65 | 40 | 4.0 | 7.0 | 0.00 | 0.15 | 0.00 | 76 | 1011.2 |
| 20260904110945 | 65 | 322 | 5.0 | 7.0 | 0.00 | 0.15 | 0.00 | 76 | 1011.2 |
| 20260904110446 | 65 | 296 | 4.0 | 9.0 | 0.00 | 0.15 | 0.00 | 75 | 1011.5 |
| 20260904105946 | 65 | 0 | 2.0 | 7.0 | 0.00 | 0.15 | 0.00 | 76 | 1011.2 |
| 20260904105446 | 65 | 205 | 3.0 | 7.0 | 0.00 | 0.15 | 0.00 | 77 | 1011.2 |
| 20260904104946 | 65 | 48 | 4.0 | 9.0 | 0.00 | 0.15 | 0.00 | 76 | 1011.2 |
| 20260904104446 | 66 | 291 | 4.0 | 8.0 | 0.00 | 0.15 | 0.00 | 76 | 1010.8 |
| 20260904103946 | 65 | 289 | 5.0 | 8.0 | 0.00 | 0.15 | 0.00 | 78 | 1010.8 |
| 20260904103446 | 65 | 17 | 4.0 | 6.0 | 0.00 | 0.15 | 0.00 | 80 | 1010.8 |
| 20260904102946 | 65 | 342 | 4.0 | 8.0 | 0.00 | 0.15 | 0.00 | 80 | 1010.8 |
| 20260904102447 | 64 | 337 | 1.0 | 7.0 | 0.00 | 0.15 | 0.00 | 80 | 1010.8 |
| 20260904101946 | 64 | 303 | 2.0 | 6.0 | 0.00 | 0.15 | 0.00 | 79 | 1010.8 |
| 20260904101446 | 64 | 18 | 2.0 | 8.0 | 0.00 | 0.15 | 0.00 | 79 | 1010.8 |
| 20260904100946 | 64 | 260 | 7.0 | 10.0 | 0.00 | 0.15 | 0.00 | 79 | 1010.5 |
| 20260904100446 | 64 | 39 | 2.0 | 5.0 | 0.00 | 0.15 | 0.00 | 81 | 1010.8 |
| 20260904095946 | 65 | 267 | 4.0 | 5.0 | 0.00 | 0.15 | 0.00 | 81 | 1010.5 |
| 20260904095446 | 65 | 298 | 2.0 | 6.0 | 0.00 | 0.15 | 0.00 | 79 | 1010.5 |
| 20260904094946 | 65 | 347 | 3.0 | 9.0 | 0.00 | 0.15 | 0.00 | 79 | 1010.5 |
| 20260904094446 | 66 | 317 | 3.0 | 7.0 | 0.00 | 0.15 | 0.00 | 80 | 1010.8 |
| 20260904093946 | 65 | 279 | 1.0 | 8.0 | 0.00 | 0.15 | 0.00 | 80 | 1010.5 |
| 20260904093446 | 65 | 337 | 3.0 | 7.0 | 0.00 | 0.15 | 0.00 | 81 | 1010.5 |
| 20260904092946 | 65 | 15 | 5.0 | 8.0 | 0.00 | 0.15 | 0.00 | 81 | 1010.5 |
| 20260904092445 | 66 | 327 | 3.0 | 7.0 | 0.00 | 0.15 | 0.00 | 82 | 1010.2 |
| 20260904091945 | 66 | 316 | 4.0 | 10.0 | 0.00 | 0.15 | 0.00 | 81 | 1010.5 |
| 20260904091446 | 65 | 323 | 4.0 | 8.0 | 0.00 | 0.15 | 0.00 | 84 | 1010.2 |
| 20260904090946 | 65 | 46 | 4.0 | 9.0 | 0.00 | 0.15 | 0.00 | 84 | 1009.8 |
| 20260904090447 | 65 | 345 | 4.0 | 13.0 | 0.00 | 0.15 | 0.00 | 84 | 1010.2 |
| 20260904085952 | 65 | 293 | 3.0 | 6.0 | 0.00 | 0.15 | 0.00 | 85 | 1009.8 |
| 20260904085446 | 65 | 292 | 4.0 | 9.0 | 0.00 | 0.15 | 0.00 | 85 | 1009.8 |
| 20260904084946 | 65 | 295 | 3.0 | 7.0 | 0.00 | 0.15 | 0.00 | 86 | 1009.5 |
| 20260904084446 | 64 | 306 | 7.0 | 8.0 | 0.00 | 0.15 | 0.00 | 86 | 1009.8 |
| 20260904083948 | 64 | 50 | 9.0 | 21.0 | 0.00 | 0.15 | 0.00 | 85 | 1009.8 |
| 20260904083446 | 64 | 22 | 5.0 | 10.0 | 0.00 | 0.15 | 0.00 | 89 | 1009.8 |
| 20260904082946 | 63 | 336 | 4.0 | 7.0 | 0.00 | 0.15 | 0.00 | 91 | 1009.8 |
| 20260904082446 | 63 | 8 | 4.0 | 11.0 | 0.00 | 0.15 | 0.00 | 92 | 1009.5 |
| 20260904081946 | 63 | 292 | 6.0 | 11.0 | 0.00 | 0.15 | 0.00 | 94 | 1009.5 |
| 20260904081446 | 63 | 292 | 5.0 | 6.0 | 0.00 | 0.15 | 0.00 | 95 | 1009.5 |
| 20260904080946 | 63 | 21 | 9.0 | 13.0 | 0.00 | 0.15 | 0.00 | 95 | 1009.8 |
| 20260904080447 | 63 | 287 | 4.0 | 7.0 | 0.07 | 0.15 | 0.00 | 95 | 1009.5 |
| 20260904075947 | 62 | 329 | 2.0 | 5.0 | 0.05 | 0.14 | 0.00 | 95 | 1009.5 |
| 20260904075447 | 63 | 284 | 5.0 | 7.0 | 0.05 | 0.14 | 0.00 | 95 | 1009.5 |
| 20260904074947 | 63 | 318 | 3.0 | 6.0 | 0.07 | 0.13 | 0.00 | 95 | 1009.5 |
| 20260904074446 | 63 | 2 | 1.0 | 5.0 | 0.00 | 0.12 | 0.00 | 95 | 1009.1 |
| 20260904073947 | 63 | 345 | 2.0 | 3.0 | 0.00 | 0.12 | 0.00 | 95 | 1009.5 |
| 20260904073446 | 63 | 21 | 5.0 | 7.0 | 0.00 | 0.12 | 0.00 | 94 | 1009.5 |
| 20260904072946 | 63 | 262 | 3.0 | 7.0 | 0.00 | 0.12 | 0.00 | 94 | 1009.1 |
| 20260904072446 | 63 | 263 | 5.0 | 8.0 | 0.00 | 0.12 | 0.00 | 94 | 1009.1 |
| 20260904071948 | 62 | 295 | 3.0 | 7.0 | 0.00 | 0.12 | 0.00 | 94 | 1009.1 |
| 20260904071445 | 62 | 314 | 2.0 | 9.0 | 0.00 | 0.12 | 0.00 | 94 | 1009.1 |
| 20260904070946 | 62 | 236 | 3.0 | 7.0 | 0.00 | 0.12 | 0.00 | 95 | 1008.8 |
| 20260904070446 | 62 | 319 | 4.0 | 9.0 | 0.00 | 0.12 | 0.00 | 95 | 1009.1 |
| 20260904065520 | 63 | 265 | 4.0 | 9.0 | 0.00 | 0.12 | 0.00 | 95 | 1008.8 |
| 20260904064946 | 63 | 296 | 3.0 | 7.0 | 0.00 | 0.12 | 0.00 | 95 | 1008.8 |
| 20260904064446 | 63 | 286 | 3.0 | 7.0 | 0.00 | 0.12 | 0.00 | 95 | 1008.8 |
| 20260904063946 | 63 | 224 | 7.0 | 10.0 | 0.00 | 0.12 | 0.00 | 95 | 1008.8 |
| 20260904063446 | 63 | 283 | 2.0 | 13.0 | 0.00 | 0.12 | 0.00 | 94 | 1008.8 |
| 20260904062946 | 63 | 338 | 6.0 | 7.0 | 0.00 | 0.12 | 0.00 | 94 | 1008.8 |
| 20260904062446 | 63 | 338 | 5.0 | 10.0 | 0.00 | 0.12 | 0.00 | 94 | 1008.5 |
| 20260904061946 | 63 | 323 | 2.0 | 11.0 | 0.00 | 0.12 | 0.00 | 94 | 1008.8 |
| 20260904061446 | 63 | 303 | 3.0 | 8.0 | 0.00 | 0.12 | 0.00 | 94 | 1008.5 |
| 20260904060946 | 63 | 87 | 8.0 | 11.0 | 0.00 | 0.12 | 0.00 | 94 | 1008.1 |
| 20260904060446 | 63 | 82 | 6.0 | 11.0 | 0.07 | 0.12 | 0.00 | 94 | 1008.1 |
| 20260904055946 | 63 | 255 | 4.0 | 8.0 | 0.07 | 0.12 | 0.00 | 94 | 1008.1 |
| 20260904055446 | 63 | 62 | 6.0 | 10.0 | 0.05 | 0.11 | 0.00 | 94 | 1008.1 |
| 20260904054946 | 63 | 308 | 4.0 | 10.0 | 0.17 | 0.11 | 0.00 | 94 | 1008.1 |
| 20260904054447 | 64 | 335 | 6.0 | 10.0 | 0.24 | 0.10 | 0.00 | 93 | 1008.1 |
| 20260904053946 | 64 | 230 | 3.0 | 9.0 | 0.24 | 0.08 | 0.00 | 92 | 1007.8 |
| 20260904053446 | 65 | 273 | 5.0 | 13.0 | 0.35 | 0.06 | 0.00 | 89 | 1008.1 |
| 20260904052946 | 68 | 301 | 7.0 | 15.0 | 0.24 | 0.04 | 0.00 | 86 | 1007.8 |
| 20260904052446 | 68 | 256 | 2.0 | 6.0 | 0.00 | 0.00 | 0.00 | 88 | 1007.1 |
| 20260904051946 | 68 | 348 | 3.0 | 6.0 | 0.00 | 0.00 | 0.00 | 88 | 1007.1 |
| 20260904051453 | 68 | 237 | 2.0 | 5.0 | 0.00 | 0.00 | 0.00 | 88 | 1007.1 |
| 20260904050946 | 68 | 143 | 3.0 | 8.0 | 0.00 | 0.00 | 0.00 | 88 | 1007.1 |
| 20260904050446 | 68 | 136 | 2.0 | 5.0 | 0.00 | 0.00 | 0.00 | 88 | 1007.1 |
| 20260904045945 | 68 | 147 | 6.0 | 8.0 | 0.00 | 0.00 | 0.00 | 88 | 1007.5 |
| 20260904045446 | 68 | 154 | 1.0 | 8.0 | 0.00 | 0.00 | 0.00 | 87 | 1007.1 |
| 20260904044946 | 68 | 123 | 1.0 | 3.0 | 0.00 | 0.00 | 0.00 | 87 | 1007.5 |
| 20260904044446 | 68 | 128 | 1.0 | 7.0 | 0.00 | 0.00 | 0.00 | 86 | 1007.1 |
| 20260904043946 | 68 | 187 | 2.0 | 8.0 | 0.00 | 0.00 | 0.00 | 86 | 1007.5 |
| 20260904043446 | 68 | 194 | 1.0 | 5.0 | 0.00 | 0.00 | 0.00 | 86 | 1007.5 |
| 20260904042946 | 68 | 73 | 1.0 | 8.0 | 0.00 | 0.00 | 0.00 | 86 | 1007.1 |
| 20260904042446 | 68 | 26 | 2.0 | 8.0 | 0.00 | 0.00 | 0.00 | 86 | 1007.5 |
| 20260904041946 | 69 | 17 | 1.0 | 3.0 | 0.00 | 0.00 | 0.00 | 86 | 1007.1 |
| 20260904041447 | 69 | 168 | 2.0 | 3.0 | 0.00 | 0.00 | 0.00 | 86 | 1007.5 |
| 20260904040946 | 69 | 38 | 2.0 | 3.0 | 0.00 | 0.00 | 0.00 | 85 | 1007.5 |
| 20260904040005 | 69 | 170 | 2.0 | 5.0 | 0.00 | 0.00 | 0.00 | 85 | 1007.5 |
| 20260904035446 | 69 | 161 | 1.0 | 3.0 | 0.00 | 0.00 | 0.00 | 85 | 1007.5 |
| 20260904034946 | 69 | 179 | 1.0 | 6.0 | 0.00 | 0.00 | 0.00 | 85 | 1007.8 |
| 20260904034446 | 69 | 245 | 2.0 | 5.0 | 0.00 | 0.00 | 0.00 | 85 | 1007.5 |
| 20260904033946 | 69 | 91 | 1.0 | 3.0 | 0.00 | 0.00 | 0.00 | 85 | 1007.5 |
| 20260904033446 | 69 | 181 | 4.0 | 7.0 | 0.00 | 0.00 | 0.00 | 85 | 1007.5 |
| 20260904032946 | 69 | 197 | 1.0 | 5.0 | 0.00 | 0.00 | 0.00 | 86 | 1007.8 |
| 20260904032447 | 69 | 182 | 2.0 | 5.0 | 0.00 | 0.00 | 0.00 | 86 | 1008.1 |
| 20260904031946 | 68 | 136 | 1.0 | 5.0 | 0.00 | 0.00 | 0.00 | 86 | 1008.1 |
| 20260904031446 | 68 | 183 | 2.0 | 5.0 | 0.00 | 0.00 | 0.00 | 87 | 1008.1 |
| 20260904030947 | 68 | 19 | 1.0 | 3.0 | 0.00 | 0.00 | 0.00 | 87 | 1008.1 |
| 20260904030447 | 68 | 141 | 5.0 | 6.0 | 0.00 | 0.00 | 0.00 | 87 | 1008.1 |
| 20260904025945 | 68 | 349 | 2.0 | 3.0 | 0.00 | 0.00 | 0.00 | 87 | 1007.8 |
| 20260904025446 | 69 | 343 | 2.0 | 5.0 | 0.00 | 0.00 | 0.00 | 87 | 1008.1 |
| 20260904024946 | 69 | 165 | 2.0 | 8.0 | 0.00 | 0.00 | 0.00 | 87 | 1008.1 |
| 20260904024447 | 69 | 158 | 1.0 | 6.0 | 0.00 | 0.00 | 0.00 | 86 | 1008.1 |
| 20260904023946 | 69 | 90 | 1.0 | 5.0 | 0.00 | 0.00 | 0.00 | 86 | 1008.5 |
| 20260904023446 | 69 | 285 | 2.0 | 3.0 | 0.00 | 0.00 | 0.00 | 86 | 1008.5 |
| 20260904022947 | 69 | 144 | 1.0 | 3.0 | 0.00 | 0.00 | 0.00 | 86 | 1008.5 |
| 20260904022446 | 69 | 284 | 3.0 | 8.0 | 0.00 | 0.00 | 0.00 | 86 | 1008.8 |
| 20260904021946 | 69 | 125 | 1.0 | 3.0 | 0.00 | 0.00 | 0.00 | 86 | 1008.8 |
| 20260904021446 | 69 | 344 | 1.0 | 7.0 | 0.00 | 0.00 | 0.00 | 86 | 1008.8 |
| 20260904020948 | 69 | 102 | 1.0 | 5.0 | 0.00 | 0.00 | 0.00 | 86 | 1008.8 |
| 20260904020447 | 69 | 95 | 1.0 | 2.0 | 0.00 | 0.00 | 0.00 | 86 | 1008.8 |
| 20260904015946 | 69 | 130 | 1.0 | 2.0 | 0.00 | 0.00 | 0.00 | 86 | 1008.8 |
| 20260904015447 | 69 | 162 | 1.0 | 6.0 | 0.00 | 0.00 | 0.00 | 86 | 1008.8 |
| 20260904014947 | 69 | 150 | 1.0 | 7.0 | 0.00 | 0.00 | 0.00 | 86 | 1008.8 |
| 20260904014447 | 69 | 127 | 1.0 | 6.0 | 0.00 | 0.00 | 0.00 | 85 | 1008.8 |
| 20260904013952 | 69 | 147 | 4.0 | 6.0 | 0.00 | 0.00 | 0.00 | 85 | 1008.5 |
| 20260904013447 | 69 | 144 | 2.0 | 5.0 | 0.00 | 0.00 | 0.00 | 85 | 1008.8 |
| 20260904012946 | 69 | 133 | 1.0 | 2.0 | 0.00 | 0.00 | 0.00 | 85 | 1008.8 |
| 20260904012447 | 69 | 102 | 1.0 | 6.0 | 0.00 | 0.00 | 0.00 | 85 | 1009.1 |
| 20260904011945 | 69 | 208 | 2.0 | 6.0 | 0.00 | 0.00 | 0.00 | 85 | 1009.1 |
| 20260904011446 | 69 | 178 | 1.0 | 2.0 | 0.00 | 0.00 | 0.00 | 85 | 1008.8 |
| 20260904010946 | 69 | 143 | 5.0 | 6.0 | 0.00 | 0.00 | 0.00 | 85 | 1009.1 |
| 20260904010447 | 68 | 130 | 1.0 | 2.0 | 0.00 | 0.00 | 0.00 | 85 | 1009.1 |
| 20260904005946 | 68 | 165 | 2.0 | 3.0 | 0.00 | 0.00 | 0.00 | 85 | 1009.1 |
| 20260904005446 | 68 | 149 | 1.0 | 5.0 | 0.00 | 0.00 | 0.00 | 85 | 1009.1 |
| 20260904004946 | 68 | 121 | 3.0 | 5.0 | 0.00 | 0.00 | 0.00 | 84 | 1009.5 |
| 20260904004446 | 68 | 255 | 4.0 | 7.0 | 0.00 | 0.00 | 0.00 | 84 | 1009.5 |
| 20260904003946 | 68 | 173 | 3.0 | 5.0 | 0.00 | 0.00 | 0.00 | 84 | 1009.5 |
| 20260904003447 | 68 | 125 | 2.0 | 2.0 | 0.00 | 0.00 | 0.00 | 84 | 1009.1 |